Hovedside
METAR-TAF:

METAR-TAF

Lufthavner :

Torsby, Sverige

breddegrad: 60-09-17N, lengdegrad: 12-59-40E, høyde over havet: 120 m

Gjeldene værobservasjon

Denne rapporten ble laget for 1 time og 12 minutter siden, klokken 09:50 UTC
Vind 6 kt fra Nord-nordvest, skiftende mellom Vest-nordvest og Nord-nordøst
Temperatur 6°C
Luftfuktighet 49%
Trykk 1008 hPa
Sikt 10 km eller mer

METAR: ESST 270950Z AUTO 34006KT 300V020 9999 FEW045/// SCT110/// 06/M04 Q1008

Tid: 13:02 (11:02 UTC)


TAF: fraværende

Værobservasjoner og værvarsel for over 4000 flyplasser (METAR- og TAF-rapporter).

Tilgjengelige stasjoner er representert av de røde og gule prikkene på kartet.

Hold musepekeren over prikken for å se navnet på stasjonen.

Klikk så for å se værobservasjoner og -varsler.

For å forandre kartet kan du klikke på den grønne knappen med svart kryss for å zoome inn, på den grønne knappen med strek for å zoome ut, eller på de grønne pilene for å se tilstøtende kart.


METAR-TAF: